Flag for Switzerland Weather past 2 weeks in Vernier, Geneva, Switzerland

Now
77 °F

Passing clouds.


Feels Like: 78 °F
Forecast: 49 / 73 °F
Wind: 15 mph from Southwest

Location: Geneva Cointrin Airport

Current Time: May 29, 2015 at 2:28:28 PM

Latest Report: May 29, 2015 at 1:50 PM


Visibility: N/A

Pressure: 29.92 "Hg

Humidity: 32%

Dew point: 45 °F

Location of VernierLocation

Historic Weather in Vernier — Graph

°F

Vernier temperature yesterday

Maximum temperature yesterday: 77 °F (at 4:50 PM)
Minimum temperature yesterday: 43 °F (at 4:20 AM)
Average temperature yesterday: 61 °F

Past Weeks' High & Low Weather Summary

 TemperatureHumidityPressure
High79 °F (May 18, 4:20 PM)100% (May 15, 4:20 AM)30.33 "Hg (May 15, 4:20 AM)
Low43 °F (May 28, 4:20 AM)24% (May 28, 4:50 PM)29.80 "Hg (May 18, 5:20 PM)
Average58 °F63%30.06 "Hg
* Reported May 14 1:20 PM — May 29 1:20 PM, Vernier, Weather by CustomWeather, © 2015

Note: Actual official high and low records may vary slightly from our data, if they occured in-between our weather recording intervals... More about our weather records

Advertising

Vernier weather history for previous 24 hours

 ConditionsComfort  
Time TempWeatherWind HumidityBarometerVisibility
1:20 PM
Fri, May 29
75 °FPassing clouds.17 mph31%29.95 "HgN/A
12:50 PM75 °FPassing clouds.18 mph34%29.95 "HgN/A
12:20 PM75 °FPassing clouds.18 mph31%29.95 "HgN/A
11:50 AM72 °FPassing clouds.10 mph36%29.95 "HgN/A
11:20 AM70 °FScattered clouds.7 mph40%29.95 "HgN/A
10:50 AM68 °FScattered clouds.6 mph40%29.98 "HgN/A
10:20 AM66 °FScattered clouds.9 mph40%29.98 "HgN/A
9:50 AM64 °FSunny.2 mph40%29.98 "Hg10 mi
9:20 AM63 °FSunny.2 mph49%29.98 "Hg10 mi
8:50 AM63 °FSunny.2 mph45%29.98 "Hg10 mi
8:20 AM63 °FSunny.1 mph56%29.98 "Hg10 mi
7:50 AM57 °FSunny.1 mph63%29.98 "Hg10 mi
7:20 AM57 °FSunny.No wind67%29.98 "Hg10 mi
6:50 AM52 °FSunny.2 mph77%29.98 "Hg10 mi
6:20 AM50 °FClear.2 mph76%29.98 "Hg10 mi
5:50 AM50 °FClear.No wind82%29.98 "Hg10 mi
5:20 AM52 °FClear.2 mph72%29.98 "Hg10 mi
4:50 AM52 °FClear.2 mph72%30.01 "Hg10 mi
4:20 AM50 °FClear.1 mph76%30.01 "Hg10 mi
3:50 AM50 °FClear.1 mph76%30.01 "Hg10 mi
2:50 AM48 °FClear.2 mph76%30.01 "Hg10 mi
2:20 AM48 °FClear.2 mph76%30.04 "Hg10 mi
1:50 AM50 °FClear.2 mph76%30.04 "Hg10 mi
1:20 AM52 °FClear.1 mph72%30.04 "Hg10 mi
12:50 AM52 °FClear.1 mph72%30.04 "Hg10 mi
11:50 PM
Thu, May 28
54 °FClear.2 mph63%30.04 "Hg10 mi
11:20 PM54 °FClear.1 mph67%30.04 "Hg10 mi
10:50 PM57 °FClear.2 mph55%30.04 "Hg10 mi
10:20 PM61 °FClear.3 mph48%30.04 "Hg10 mi
9:50 PM66 °FSunny.3 mph37%30.04 "Hg10 mi
9:20 PM66 °FSunny.3 mph37%30.01 "Hg10 mi
8:50 PM70 °FSunny.5 mph31%30.01 "Hg10 mi
8:20 PM72 °FSunny.7 mph29%30.01 "Hg10 mi
7:50 PM73 °FPassing clouds.7 mph29%30.01 "HgN/A
7:20 PM73 °FSunny.8 mph25%30.01 "Hg10 mi
6:50 PM75 °FSunny.10 mph24%30.01 "Hg10 mi
6:20 PM75 °FPassing clouds.12 mph24%30.01 "HgN/A
5:50 PM75 °FSunny.10 mph29%30.01 "Hg10 mi
5:20 PM77 °FSunny.12 mph24%30.04 "Hg10 mi
4:50 PM77 °FPassing clouds.9 mph24%30.04 "HgN/A
4:20 PM75 °FSunny.10 mph27%30.04 "Hg10 mi
3:50 PM75 °FPassing clouds.8 mph25%30.04 "HgN/A
3:20 PM75 °FSunny.5 mph29%30.07 "Hg10 mi
2:50 PM73 °FPassing clouds.7 mph29%30.07 "HgN/A
2:20 PM73 °FPassing clouds.5 mph29%30.07 "HgN/A
Weather by CustomWeather, © 2015

See weather overviewHow to use our weather pages